Alexander City, AL

2:08 AM CDT on March 25, 2017 (GMT -0500)
Russell

Weather History for KALX - November, 2013

Change the Weather History Date:

Saturday, November 16, 2013

  Actual Average (KAUO) Record (KAUO)
Temperature  
Mean Temperature 62 °F -  
Max Temperature 68 °F 65 °F 80 °F (1985)
Min Temperature 55 °F 37 °F 20 °F (1963)
Degree Days  
Heating Degree Days 4    
Growing Degree Days 12 (Base 50)    
Moisture  
Dew Point 56 °F    
Average Humidity 81    
Maximum Humidity 86    
Minimum Humidity 74    
Precipitation  
Precipitation 0.01 in - - ()
Sea Level Pressure  
Sea Level Pressure 30.14 in    
Wind  
Wind Speed 2 mph (East)    
Max Wind Speed 7 mph    
Max Gust Speed -    
Visibility 7 miles    
Events Fog    
Averages and records for this station are not official NWS values.
T = Trace of Precipitation, MM = Missing Value Source: NWS Daily Summary

Daily Weather History Graph

Daily Weather History Graph

Search for Another Location

Airport or City:

Trip Planner

Search our weather history database for the weather conditions in past years. The results will help you decide how hot, cold, wet, or windy it might be!

Date:

Astronomy

Nov. 16, 2013 Rise Set
Actual Time 6:15 AM CST 4:41 PM CST
Civil Twilight 5:49 AM CST 5:07 PM CST
Nautical Twilight 5:19 AM CST 5:37 PM CST
Astronomical Twilight 4:49 AM CST 6:07 PM CST
Moon 4:14 PM CST (11/16) 5:13 AM CST (11/16)
Length of Visible Light 11h 18m
Length of Day
10h 26m
Waxing Gibbous, 99% of the Moon is Illuminated
Nov 16
Waxing Gibbous
Nov 17
Full
Nov 25
Last Quarter
Dec 2
New
Dec 9
First Quarter

Hourly Weather History & Observations

Time (CST) Temp. Dew Point Humidity Pressure Visibility Wind Dir Wind Speed Gust Speed Precip Events Conditions
12:15 AM 57.7 °F 53.6 °F 86% 30.17 in 4.0 mi Calm Calm - N/A   Overcast
12:35 AM 56.5 °F 52.2 °F 85% 30.16 in 3.0 mi Calm Calm - N/A   Haze
12:55 AM 56.5 °F 52.2 °F 85% 30.15 in 2.5 mi Calm Calm - N/A   Haze
1:15 AM 56.7 °F 52.5 °F 86% 30.16 in 3.0 mi Calm Calm - N/A   Overcast
1:35 AM 57.7 °F 53.6 °F 86% 30.15 in 4.0 mi Calm Calm - N/A   Overcast
1:55 AM 57.7 °F 53.6 °F 86% 30.15 in 4.0 mi Calm Calm - 0.01 in   Overcast
2:15 AM 57.7 °F 53.6 °F 86% 30.15 in 5.0 mi Calm Calm - N/A   Overcast
2:35 AM 57.7 °F 53.6 °F 86% 30.14 in 5.0 mi Calm Calm - N/A   Overcast
2:55 AM 57.7 °F 53.6 °F 86% 30.14 in 5.0 mi Calm Calm - N/A   Mostly Cloudy
3:15 AM 57.7 °F 53.6 °F 86% 30.14 in 5.0 mi Calm Calm - N/A   Mostly Cloudy
3:35 AM 57.7 °F 53.6 °F 86% 30.13 in 5.0 mi Calm Calm - N/A   Mostly Cloudy
3:55 AM 57.7 °F 53.6 °F 86% 30.14 in 5.0 mi Calm Calm - N/A   Mostly Cloudy
4:15 AM 56.5 °F 52.2 °F 85% 30.14 in 5.0 mi Calm Calm - N/A   Haze
4:35 AM 55.4 °F 50.9 °F 85% 30.13 in 4.0 mi Calm Calm - N/A   Mostly Cloudy
4:55 AM 55.4 °F 50.9 °F 85% 30.14 in 3.0 mi ENE 3.5 mph - N/A   Overcast
5:15 AM 55.4 °F 51.1 °F 85% 30.14 in 3.0 mi Calm Calm - N/A   Overcast
5:35 AM 55.4 °F 51.1 °F 85% 30.15 in 4.0 mi Calm Calm - N/A   Overcast
5:55 AM 55.4 °F 51.1 °F 85% 30.15 in 2.5 mi Calm Calm - N/A   Overcast
6:15 AM 55.4 °F 51.1 °F 85% 30.16 in 1.2 mi Calm Calm - N/A   Overcast
6:35 AM 55.4 °F 51.1 °F 85% 30.16 in 0.5 mi Calm Calm - N/A Fog Fog
6:55 AM 56.3 °F 52.0 °F 85% 30.17 in 0.8 mi Calm Calm - N/A   Overcast
7:15 AM 56.5 °F 52.3 °F 86% 30.18 in 1.0 mi Calm Calm - N/A   Haze
7:35 AM 57.7 °F 53.6 °F 86% 30.18 in 1.2 mi NE 3.5 mph - N/A   Overcast
7:55 AM 57.7 °F 53.6 °F 86% 30.19 in 2.5 mi East 3.5 mph - N/A   Overcast
8:15 AM 57.7 °F 53.6 °F 86% 30.19 in 3.0 mi Calm Calm - N/A   Overcast
8:35 AM 57.7 °F 53.6 °F 86% 30.18 in 4.0 mi ENE 4.6 mph - N/A   Overcast
8:55 AM 57.9 °F 53.8 °F 86% 30.18 in 4.0 mi East 6.9 mph - N/A   Overcast
9:15 AM 59.7 °F 55.4 °F 86% 30.19 in 4.0 mi ESE 3.5 mph - N/A   Haze
9:35 AM 60.3 °F 55.6 °F 85% 30.20 in 4.0 mi Calm Calm - N/A   Overcast
9:55 AM 60.3 °F 55.4 °F 84% 30.20 in 5.0 mi Calm Calm - N/A   Haze
10:15 AM 61.3 °F 56.1 °F 83% 30.20 in 5.0 mi Calm Calm - N/A   Haze
10:35 AM 61.7 °F 56.3 °F 82% 30.19 in 5.0 mi East 3.5 mph - N/A   Haze
10:55 AM 61.7 °F 55.9 °F 81% 30.18 in 10.0 mi ESE 6.9 mph - N/A   Overcast
11:15 AM 62.8 °F 56.7 °F 80% 30.18 in 10.0 mi East 5.8 mph - N/A   Overcast
11:35 AM 62.8 °F 56.3 °F 79% 30.17 in 10.0 mi East 4.6 mph - N/A   Overcast
11:55 AM 63.5 °F 56.5 °F 78% 30.16 in 10.0 mi East 3.5 mph - N/A   Overcast
12:15 PM 65.5 °F 57.7 °F 76% 30.14 in 10.0 mi East 6.9 mph - N/A   Overcast
12:35 PM 65.5 °F 57.7 °F 76% 30.13 in 10.0 mi East 4.6 mph - N/A   Overcast
12:55 PM 65.5 °F 57.9 °F 77% 30.13 in 10.0 mi ESE 3.5 mph - N/A   Overcast
1:15 PM 65.5 °F 58.1 °F 77% 30.13 in 10.0 mi East 6.9 mph - N/A   Overcast
1:35 PM 65.5 °F 57.9 °F 77% 30.12 in 10.0 mi East 3.5 mph - N/A   Overcast
1:55 PM 65.5 °F 57.7 °F 76% 30.11 in 10.0 mi ENE 3.5 mph - N/A   Overcast
2:15 PM 65.5 °F 57.6 °F 76% 30.11 in 10.0 mi East 6.9 mph - N/A   Overcast
2:35 PM 67.1 °F 59.0 °F 75% 30.11 in 10.0 mi ESE 3.5 mph - N/A   Overcast
2:55 PM 68.0 °F 59.4 °F 74% 30.11 in 10.0 mi Calm Calm - N/A   Mostly Cloudy
3:15 PM 68.0 °F 59.4 °F 74% 30.10 in 10.0 mi East 3.5 mph - N/A   Overcast
3:35 PM 68.0 °F 60.1 °F 76% 30.11 in 10.0 mi Calm Calm - N/A   Overcast
3:55 PM 67.5 °F 59.9 °F 77% 30.10 in 10.0 mi Calm Calm - N/A   Overcast
4:15 PM 66.4 °F 59.0 °F 77% 30.10 in 10.0 mi Calm Calm - N/A   Scattered Clouds
4:35 PM 65.5 °F 58.5 °F 78% 30.10 in 10.0 mi Calm Calm - N/A   Scattered Clouds
4:55 PM 63.5 °F 57.4 °F 80% 30.10 in 10.0 mi Calm Calm - N/A   Clear
5:15 PM 62.8 °F 57.2 °F 82% 30.11 in 10.0 mi ENE 3.5 mph - N/A   Clear
5:35 PM 62.8 °F 57.4 °F 82% 30.11 in 7.0 mi Calm Calm - N/A   Mostly Cloudy
5:55 PM 63.0 °F 57.4 °F 82% 30.12 in 7.0 mi NNE 3.5 mph - N/A   Overcast
6:15 PM 63.5 °F 57.7 °F 81% 30.12 in 7.0 mi Calm Calm - N/A   Overcast
6:35 PM 63.5 °F 57.7 °F 81% 30.13 in 7.0 mi Calm Calm - N/A   Overcast
6:55 PM 63.5 °F 57.6 °F 81% 30.12 in 10.0 mi East 5.8 mph - N/A   Overcast
7:15 PM 63.7 °F 57.6 °F 80% 30.12 in 10.0 mi East 6.9 mph - N/A   Overcast
7:35 PM 64.9 °F 58.3 °F 79% 30.12 in 10.0 mi ESE 6.9 mph - N/A   Overcast
7:55 PM 65.3 °F 58.5 °F 78% 30.12 in 10.0 mi ESE 4.6 mph - N/A   Overcast
8:15 PM 65.5 °F 58.6 °F 79% 30.12 in 10.0 mi East 4.6 mph - N/A   Overcast
8:35 PM 65.5 °F 58.5 °F 78% 30.13 in 10.0 mi East 3.5 mph - N/A   Overcast
8:55 PM 65.5 °F 58.5 °F 78% 30.13 in 10.0 mi Calm Calm - N/A   Overcast
9:15 PM 65.5 °F 58.1 °F 77% 30.14 in 10.0 mi ENE 3.5 mph - N/A   Overcast
9:35 PM 64.8 °F 57.7 °F 78% 30.13 in 10.0 mi ESE 5.8 mph - N/A   Overcast
9:55 PM 65.5 °F 58.1 °F 77% 30.13 in 10.0 mi East 3.5 mph - N/A   Overcast
10:15 PM 65.5 °F 58.1 °F 77% 30.12 in 10.0 mi East 3.5 mph - N/A   Overcast
10:35 PM 65.5 °F 58.1 °F 77% 30.13 in 10.0 mi East 3.5 mph - N/A   Overcast
10:55 PM 65.5 °F 58.1 °F 77% 30.12 in 10.0 mi East 3.5 mph - N/A   Overcast
11:15 PM 65.5 °F 58.1 °F 77% 30.12 in 5.0 mi ESE 4.6 mph - N/A   Haze
11:35 PM 65.5 °F 57.9 °F 77% 30.11 in 4.0 mi ESE 5.8 mph - N/A   Haze
11:55 PM 65.5 °F 57.7 °F 76% 30.11 in 3.0 mi ESE 3.5 mph - N/A   Haze